EHI
0 0 0 0 0 0 0 0 0 0 0 0 0 0 0 0 0 0 0 0 0 0 0 0 0 0 0 0 0 0 0 0 0 0 0 0 0 0 0 0 0 0 0
0 0 0 0 0 0 0 0 0 0 0 0 0 0 0 0 0 0 0 0 0 0 0 0 0 0 0 0 0 0 0 0 0 0 0 0 0 0 0 0 0 0 0
0 0 0 0 0 0 0 0 0 0 0 0 0 0 0 0 0 0 0 0 0 0 0 0 0 0 0 0 0 0 0 0 0 0 0 1 0 0 0 0 0 0 0
0 0 0 0 0 0 0 0 0 0 0 0 0 0 0 0 0 0 0 0 0 0 0 0 0 0 0 0 0 0 0 0 1 0 0 0 0 0 0 0 0 0 0
0 0 0 0 0 0 0 0 0 0 0 0 0 0 0 0 0 0 0 0 0 0 0 0 0 0 0 0 0 0 0 0 0 0 0 0 0 0 0 0 0 0 0
0 0 0 0 0 0 0 0 0 0 0 0 0 0 0 0 0 0 0 0 0 0 0 0 0 0 0 0 0 0 0 0 0 0 0 0 0 0 0 0 0 0 0
0 0 0 0 0 0 0 0 0 0 0 0 0 0 0 0 0 0 0 0 0 0 0 0 0 0 0 0 0 0 0 0 0 0 0 0 0 0 0 0 0 0 0
0 0 0 0 0 0 0 0 0 0 0 0 0 0 0 0 0 0 0 0 0 0 0 0 0 0 0 0 0 0 0 0 0 0 0 0 0 0 0 0 0 0 0
0 0 0 0 0 0 0 0 0 0 0 0 0 0 0 0 0 0 0 0 0 0 0 0 0 0 0 0 0 0 0 0 0 0 0 0 0 0 0 0 0 0 0
0 0 0 0 0 0 0 0 0 0 0 0 0 0 0 0 0 0 0 0 0 0 0 0 0 0 0 0 0 0 0 0 0 0 0 0 0 0 0 0 0 0 0
0 0 0 0 0 0 0 0 0 0 0 0 0 0 0 0 0 0 0 0 0 0 0 0 0 0 0 0 0 0 0 0 0 0 0 0 0 0 0 0 0 0 0
0 0 0 0 0 0 0 0 0 0 0 0 0 0 0 0 0 0 0 0 0 0 0 0 0 0 0 0 0 0 0 0 0 0 0 0 0 0 0 0 0 0 0
0 0 0 0 0 0 0 0 0 0 0 0 0 0 0 0 0 0 0 0 0 0 0 0 0 0 0 0 0 0 0 0 0 0 0 0 0 0 0 0 0 0 0
0 0 0 0 0 0 0 0 0 0 0 0 0 0 0 0 0 0 0 0 0 0 0 0 0 0 0 0 0 0 0 0 0 0 0 0 0 0 0 0 0 0 0
0 0 0 0 0 0 0 0 0 0 0 0 0 0 0 0 0 0 0 0 0 0 0 0 0 0 0 0 0 0 0 0 0 0 0 0 0 0 0 0 0 0 0
0 0 0 0 0 0 0 0 0 0 0 0 0 0 0 0 0 0 0 0 0 0 0 0 0 0 0 0 0 0 0 0 0 0 0 0 0 0 0 0 0 0 0
0 0 0 0 0 0 0 0 0 0 0 0 0 0 0 0 0 0 0 0 0 0 0 0 0 0 0 0 0 0 0 0 0 0 0 0 0 0 0 0 0 0 0
0 0 0 0 0 0 0 0 0 0 0 0 0 0 0 0 0 0 0 0 0 0 0 0 0 0 0 0 0 0 0 0 0 0 0 0 0 0 0 0 0 0 0
0 0 0 0 0 0 0 0 0 0 0 0 0 0 0 0 0 0 0 0 0 0 0 0 0 0 0 0 0 0 0 0 0 0 0 0 0 0 0 0 0 0 0
0 0 0 0 0 0 0 0 0 0 0 0 0 0 0 0 0 0 0 0 0 0 0 0 0 0 0 0 0 0 0 0 0 0 0 0 0 0 0 0 0 0 0
0 0 0 0 0 0 0 0 0 0 0 0 0 0 0 0 0 0 0 0 0 0 0 0 0 0 0 0 0 0 0 0 0 0 0 0 0 0 0 0 0 0 0
0 0 0 0 0 0 0 0 0 0 0 0 0 0 0 0 0 0 0 0 0 0 0 0 0 0 0 0 0 0 0 0 0 0 0 0 0 0 0 0 0 0 0
0 0 0 0 0 0 0 0 0 0 0 0 0 0 0 0 0 0 0 0 0 0 0 0 0 0 0 0 0 0 0 0 0 0 0 0 0 0 0 0 0 0 0
0 0 0 0 0 0 0 0 0 0 0 0 0 0 0 0 0 0 0 0 0 0 0 0 0 0 0 0 0 0 0 0 0 0 0 0 0 0 0 0 0 0 0
0 0 0 0 0 0 0 0 0 0 0 0 0 0 0 0 0 0 0 0 0 0 0 0 0 0 0 0 0 0 0 0 0 0 0 0 0 0 0 0 0 0 0
0 0 0 0 0 0 0 0 0 0 0 0 0 0 0 0 0 0 0 0 0 0 0 0 0 0 0 0 0 0 0 0 0 0 0 0 0 0 0 0 0 0 0
Wind_Speed
3 3 3 4 4 4 3 4 5 5 5 5 6 6 6 6 6 5 6 6 6 6 5 5 5 4 3 2 2 2 2 2 3 2 1 1 2 5 4 4 4 4 4
3 3 4 4 4 4 5 6 5 6 6 6 6 6 6 6 6 6 7 7 7 8 7 6 6 4 4 3 3 3 3 3 3 3 2 1 2 5 6 6 5 5 4
3 3 4 5 5 6 6 6 6 6 6 6 6 6 7 7 7 7 7 7 8 8 8 7 7 6 6 4 4 4 4 3 3 3 3 2 2 4 5 4 5 4 4
3 4 5 6 6 7 7 7 7 7 7 7 7 7 7 7 7 7 7 8 8 8 8 8 8 8 8 7 5 6 5 4 3 3 3 3 3 4 5 5 4 3 3
4 5 6 7 6 6 6 7 7 7 8 7 7 7 7 6 7 7 7 8 8 8 8 8 9 11 11 9 6 6 6 5 4 4 4 3 4 5 5 4 5 5 3
5 6 6 6 6 6 7 7 7 7 7 7 7 7 7 8 9 10 8 6 6 7 8 8 8 10 12 14 13 11 10 8 6 5 4 5 5 5 4 6 6 6 4
5 6 6 6 7 7 8 7 7 7 7 7 7 7 8 9 13 13 13 7 7 7 7 7 8 9 10 8 10 12 12 12 10 7 6 6 6 6 7 7 6 6 4
5 6 6 7 7 7 7 8 8 7 7 7 8 8 8 10 13 13 14 9 7 8 8 8 8 7 8 8 8 7 6 6 8 6 6 6 5 6 7 7 6 5 4
6 6 7 7 8 8 9 9 8 7 7 7 7 7 8 10 12 13 12 6 6 8 8 8 9 8 10 12 9 8 6 5 6 8 8 8 8 8 7 6 7 7 5
7 7 7 7 8 9 9 9 7 7 8 7 7 7 8 9 11 13 12 5 6 6 6 7 11 11 11 13 9 9 8 6 5 6 6 6 6 7 10 8 7 7 5
7 7 8 8 8 9 8 7 7 7 7 7 7 7 7 8 10 12 12 6 6 6 5 5 5 12 13 14 11 8 10 8 6 6 5 4 3 4 5 5 6 6 6
7 8 8 8 8 8 8 8 7 7 7 7 6 7 5 6 7 8 10 10 8 6 5 4 5 9 12 13 10 9 11 9 5 5 4 4 4 5 5 6 6 5 4
7 8 9 9 8 8 7 8 7 6 5 5 5 5 5 4 5 7 8 8 9 5 4 6 6 9 10 9 11 12 10 6 5 5 5 5 5 5 5 4 4 4 3
7 8 8 8 9 8 6 5 5 5 5 5 5 5 5 4 4 3 3 2 4 4 3 4 4 6 6 6 7 7 5 6 6 5 5 4 3 4 4 4 5 5 4
7 8 8 7 8 8 7 6 6 5 5 5 5 4 4 5 5 6 3 2 2 3 3 2 2 2 3 3 3 4 4 5 5 4 4 4 4 4 4 4 5 5 5
7 7 7 7 7 7 7 7 8 7 8 8 8 6 5 6 8 7 4 3 4 5 4 3 3 3 4 5 5 5 5 5 5 5 4 4 5 5 4 4 5 5 6
7 7 7 7 7 7 6 6 7 7 6 6 6 6 6 6 5 4 3 1 2 4 3 3 4 4 4 4 5 5 5 6 5 5 5 5 5 5 4 5 5 5 5
7 8 8 6 6 6 6 6 5 5 5 5 4 5 5 5 4 3 1 1 0 1 2 3 3 4 4 4 4 4 4 4 5 5 5 5 5 5 5 6 6 6 6
6 6 6 6 6 5 5 5 4 4 4 4 4 4 3 3 3 3 1 1 2 2 2 3 3 4 4 4 4 4 5 5 5 5 6 6 6 6 6 6 6 8 7
6 11 10 6 5 5 5 5 4 4 4 4 4 3 2 1 2 2 2 3 3 3 3 3 4 4 4 4 4 4 4 5 6 6 6 6 6 6 7 7 7 7 7
5 8 12 7 5 5 5 5 5 4 4 4 4 4 3 2 3 3 3 4 4 4 4 4 4 4 4 4 4 5 6 5 5 5 6 6 6 6 6 6 7 7 7
5 5 6 6 5 5 5 5 5 4 4 4 4 4 4 3 3 3 3 4 4 4 4 4 4 4 4 5 5 6 6 6 6 6 6 6 6 6 6 7 7 7 7
5 6 6 5 5 6 5 5 4 4 4 4 4 4 3 3 3 3 3 3 3 3 3 3 4 3 3 4 4 5 6 6 6 7 7 7 7 7 7 7 9 9 9
5 5 5 5 5 5 5 5 5 4 4 4 3 3 3 4 3 3 3 2 2 2 1 2 2 3 4 3 3 3 4 4 5 6 9 8 8 7 7 8 9 10 10
4 5 5 5 5 5 5 5 5 4 4 4 4 4 4 3 3 3 2 2 1 1 1 0 0 1 1 2 2 2 3 4 5 5 6 6 8 8 8 9 9 9 9
4 4 4 4 5 5 5 5 5 5 5 4 4 3 3 3 3 3 2 1 1 1 1 1 2 2 2 2 2 2 2 3 4 4 4 5 7 7 8 8 11 10 11
Wind_Direction
299 297 305 297 291 291 284 278 275 273 274 270 268 266 264 259 251 238 236 235 230 236 236 229 232 221 215 216 203 195 199 185 200 225 222 145 127 137 129 126 122 120 125
290 296 297 294 293 291 283 278 274 272 270 265 264 262 261 260 250 240 242 241 229 229 230 225 229 225 215 212 204 201 200 202 196 203 199 168 140 154 142 135 127 116 111
300 302 302 298 291 284 279 278 275 272 271 269 264 258 257 256 250 243 238 238 233 229 224 219 221 213 217 213 206 202 203 204 196 194 200 178 146 151 137 125 115 108 110
302 299 295 289 283 281 281 281 278 274 273 269 264 259 255 253 251 248 244 239 235 232 225 220 217 209 211 206 207 205 198 195 191 189 190 176 159 154 146 145 139 130 127
298 296 289 288 288 287 287 285 283 280 281 272 267 264 258 255 254 250 244 246 235 233 230 225 222 217 215 207 202 199 194 190 188 189 189 179 167 166 167 160 154 143 122
295 293 293 296 295 292 288 286 285 282 279 275 268 263 261 266 268 264 250 247 239 231 231 230 231 226 221 215 211 202 193 189 190 187 189 187 184 175 161 161 154 158 166
297 296 298 297 294 290 293 295 286 282 276 274 270 264 258 258 259 259 254 243 234 231 229 226 234 228 213 209 211 209 207 205 193 183 187 192 184 177 167 171 176 168 162
300 298 299 299 296 294 292 289 284 277 274 271 270 265 260 263 262 257 255 245 235 231 227 221 220 224 212 200 197 197 197 203 202 193 189 194 190 180 176 175 169 143 109
300 297 297 297 297 299 298 293 287 283 280 274 269 264 261 265 262 257 252 241 235 234 231 225 216 219 216 197 187 190 195 207 210 203 194 192 187 180 167 153 157 157 153
294 293 295 295 296 298 294 291 287 283 280 282 278 268 262 263 262 257 247 232 234 235 232 228 219 213 211 195 189 187 193 200 190 192 199 200 191 185 178 172 168 168 155
291 297 299 298 297 293 291 289 290 289 289 287 285 281 272 266 268 261 247 225 224 225 225 220 216 207 207 202 195 193 198 184 176 175 179 182 177 179 184 184 178 173 169
298 301 302 302 302 307 300 298 295 293 294 294 293 294 287 280 273 266 251 232 220 215 217 215 214 208 207 203 199 204 193 176 160 164 171 183 185 188 189 187 188 185 179
306 305 304 305 303 300 297 299 301 297 291 294 295 296 299 301 297 286 265 243 224 212 215 215 212 205 197 198 202 194 179 168 160 166 183 193 195 192 177 173 172 165 155
307 307 307 307 306 305 300 294 294 293 292 292 293 295 299 304 310 317 298 256 223 217 218 213 198 185 176 176 178 184 174 173 170 175 183 187 178 173 175 169 168 165 160
308 307 308 303 301 304 302 292 288 274 260 267 275 277 291 299 299 299 285 250 207 196 172 152 140 144 160 166 165 167 170 171 178 175 175 177 178 178 180 171 165 165 171
311 312 307 305 305 304 306 307 298 284 282 266 258 259 269 274 296 300 289 259 226 189 165 163 174 179 183 183 179 179 181 184 185 181 181 183 186 185 178 171 168 173 176
301 304 304 303 304 306 307 308 310 314 305 285 276 271 266 288 304 308 307 303 209 172 165 177 183 189 192 189 185 185 190 192 183 183 186 187 187 182 173 177 177 174 175
303 305 308 300 301 303 303 302 299 302 311 309 295 280 278 285 295 307 322 69 120 184 188 191 195 194 192 191 191 193 192 184 183 188 189 188 185 180 178 181 181 178 175
307 305 305 301 302 301 303 303 301 299 298 297 302 304 288 289 287 277 264 227 224 224 216 213 209 202 200 198 197 194 191 189 189 187 191 190 187 182 183 182 181 181 176
308 313 317 308 307 309 309 309 308 303 301 299 294 287 287 279 281 266 231 230 236 234 228 224 221 214 208 206 204 197 198 199 194 192 191 190 185 182 184 181 180 179 184
307 311 318 316 307 306 307 306 303 299 294 295 288 274 255 254 270 267 254 241 236 234 231 228 226 218 213 208 205 203 201 200 195 193 192 187 182 181 180 178 179 180 175
302 302 306 306 305 305 304 302 302 302 303 302 297 297 279 270 279 276 264 254 240 231 225 221 227 225 215 209 205 200 198 200 198 193 189 186 182 179 175 176 176 174 173
304 306 311 311 310 313 316 313 312 310 308 304 303 306 303 288 282 278 275 274 267 250 236 225 226 232 225 216 208 198 197 200 196 188 184 183 182 180 177 177 176 173 174
304 306 312 316 319 323 318 314 316 317 316 314 313 311 310 305 301 296 288 289 288 281 257 224 217 222 224 212 204 197 194 191 184 183 181 180 179 177 176 176 175 174 173
306 310 315 318 320 322 321 319 319 323 324 322 320 314 315 316 316 317 318 317 308 315 336 8 257 232 198 179 165 159 165 168 169 169 171 171 171 171 173 172 170 168 167
317 322 324 325 325 324 323 323 322 323 323 323 323 317 316 315 313 316 328 340 346 358 28 42 58 72 78 81 104 126 146 159 160 165 169 167 166 169 168 167 167 166 164